Schneifelwetter: Wetterstation Hallschlag, 537 m . NN
Wetterdaten: Sonntag, 20.11.2011
Datum Zeit Temp. A. Feuchte A. Luftdruck Regen Wind Richtung Richtung Sonnenschein Helligkeit T Regen Taupunkt Windchill
20.11.2011 00:00 -0,2 C 96 % 1018 hPa 0,0 l/m 0,0 km/h (0 Bft) S-SW 195 0 min 0 lux 0 min -0,8 C -0,2 C
20.11.2011 00:15 0,1 C 96 % 1018 hPa 0,0 l/m 0,0 km/h (0 Bft) S-SW 195 0 min 0 lux 0 min -0,5 C 0,1 C
20.11.2011 00:30 0,5 C 96 % 1018 hPa 0,0 l/m 0,0 km/h (0 Bft) S-SW 195 0 min 0 lux 0 min -0,1 C 0,5 C
20.11.2011 00:45 0,8 C 96 % 1018 hPa 0,0 l/m 0,0 km/h (0 Bft) S-SW 195 0 min 0 lux 0 min 0,2 C 0,8 C
20.11.2011 01:00 1,1 C 96 % 1018 hPa 0,0 l/m 0,0 km/h (0 Bft) S-SW 195 0 min 0 lux 0 min 0,5 C 1,1 C
20.11.2011 01:15 1,2 C 96 % 1018 hPa 0,0 l/m 0,0 km/h (0 Bft) S-SW 195 0 min 0 lux 0 min 0,6 C 1,2 C
20.11.2011 01:30 1,4 C 97 % 1018 hPa 0,0 l/m 0,0 km/h (0 Bft) S-SW 195 0 min 0 lux 0 min 1,0 C 1,4 C
20.11.2011 01:45 1,6 C 97 % 1018 hPa 0,0 l/m 0,0 km/h (0 Bft) S-SW 195 0 min 0 lux 0 min 1,2 C 1,6 C
20.11.2011 02:00 1,9 C 97 % 1018 hPa 0,0 l/m 0,0 km/h (0 Bft) S-SW 195 0 min 0 lux 0 min 1,5 C 1,9 C
20.11.2011 02:15 2,1 C 97 % 1018 hPa 0,0 l/m 0,0 km/h (0 Bft) S-SW 195 0 min 0 lux 0 min 1,7 C 2,1 C
20.11.2011 02:30 2,3 C 97 % 1018 hPa 0,0 l/m 0,0 km/h (0 Bft) S-SW 195 0 min 0 lux 0 min 1,9 C 2,3 C
20.11.2011 02:45 2,4 C 97 % 1018 hPa 0,0 l/m 0,0 km/h (0 Bft) S-SW 195 0 min 0 lux 0 min 2,0 C 2,4 C
20.11.2011 03:00 2,6 C 97 % 1018 hPa 0,0 l/m 0,0 km/h (0 Bft) S-SW 195 0 min 0 lux 0 min 2,2 C 2,6 C
20.11.2011 03:15 2,7 C 97 % 1018 hPa 0,0 l/m 0,0 km/h (0 Bft) S-SW 195 0 min 0 lux 0 min 2,3 C 2,7 C
20.11.2011 03:30 2,9 C 97 % 1018 hPa 0,0 l/m 0,0 km/h (0 Bft) S-SW 195 0 min 0 lux 0 min 2,5 C 2,9 C
20.11.2011 03:45 3,1 C 97 % 1018 hPa 0,0 l/m 0,0 km/h (0 Bft) S-SW 195 0 min 0 lux 0 min 2,7 C 3,1 C
20.11.2011 04:00 3,0 C 96 % 1018 hPa 0,0 l/m 0,0 km/h (0 Bft) S-SW 195 0 min 0 lux 0 min 2,4 C 3,0 C
20.11.2011 04:15 3,1 C 97 % 1018 hPa 0,0 l/m 0,0 km/h (0 Bft) S-SW 195 0 min 0 lux 0 min 2,7 C 3,1 C
20.11.2011 04:30 3,5 C 97 % 1018 hPa 0,0 l/m 0,0 km/h (0 Bft) S-SW 195 0 min 0 lux 0 min 3,1 C 3,5 C
20.11.2011 04:45 3,7 C 97 % 1018 hPa 0,0 l/m 0,0 km/h (0 Bft) S-SW 195 0 min 0 lux 0 min 3,3 C 3,7 C
20.11.2011 05:00 3,7 C 96 % 1018 hPa 0,0 l/m 0,0 km/h (0 Bft) S-SW 195 0 min 0 lux 0 min 3,1 C 3,7 C
20.11.2011 05:15 3,7 C 96 % 1018 hPa 0,0 l/m 0,0 km/h (0 Bft) S-SW 195 0 min 0 lux 0 min 3,1 C 3,7 C
20.11.2011 05:30 3,7 C 96 % 1018 hPa 0,0 l/m 0,0 km/h (0 Bft) S-SW 195 0 min 0 lux 0 min 3,1 C 3,7 C
20.11.2011 05:45 3,8 C 97 % 1018 hPa 0,0 l/m 0,0 km/h (0 Bft) S-SW 195 0 min 0 lux 0 min 3,4 C 3,8 C
20.11.2011 06:00 3,8 C 96 % 1018 hPa 0,0 l/m 0,0 km/h (0 Bft) S-SW 195 0 min 0 lux 0 min 3,2 C 3,8 C
20.11.2011 06:15 3,8 C 96 % 1018 hPa 0,0 l/m 0,0 km/h (0 Bft) S-SW 195 0 min 0 lux 0 min 3,2 C 3,8 C
20.11.2011 06:30 3,9 C 96 % 1018 hPa 0,0 l/m 0,0 km/h (0 Bft) S-SW 195 0 min 0 lux 0 min 3,3 C 3,9 C
20.11.2011 06:45 4,0 C 96 % 1018 hPa 0,0 l/m 0,0 km/h (0 Bft) S-SW 195 0 min 0 lux 0 min 3,4 C 4,0 C
20.11.2011 07:00 4,2 C 96 % 1018 hPa 0,0 l/m 0,0 km/h (0 Bft) S-SW 195 0 min 0 lux 0 min 3,6 C 4,2 C
20.11.2011 07:15 4,1 C 96 % 1018 hPa 0,0 l/m 0,0 km/h (0 Bft) S-SW 195 0 min 0 lux 0 min 3,5 C 4,1 C
20.11.2011 07:30 3,9 C 96 % 1018 hPa 0,0 l/m 0,0 km/h (0 Bft) S-SW 195 0 min 0 lux 0 min 3,3 C 3,9 C
20.11.2011 07:45 3,9 C 96 % 1018 hPa 0,0 l/m 0,0 km/h (0 Bft) S-SW 195 0 min 85 lux 0 min 3,3 C 3,9 C
20.11.2011 08:00 3,6 C 96 % 1018 hPa 0,0 l/m 0,0 km/h (0 Bft) S-SW 195 0 min 490 lux 0 min 3,0 C 3,6 C
20.11.2011 08:15 3,5 C 96 % 1018 hPa 0,0 l/m 0,0 km/h (0 Bft) S-SW 195 0 min 1,78 klux 0 min 2,9 C 3,5 C
20.11.2011 08:30 3,4 C 96 % 1018 hPa 0,0 l/m 0,0 km/h (0 Bft) S-SW 195 0 min 3,82 klux 0 min 2,8 C 3,4 C
20.11.2011 08:45 3,6 C 96 % 1018 hPa 0,0 l/m 0,0 km/h (0 Bft) S-SW 195 0 min 5,30 klux 0 min 3,0 C 3,6 C
20.11.2011 09:00 3,8 C 96 % 1018 hPa 0,0 l/m 0,0 km/h (0 Bft) S-SW 195 0 min 6,39 klux 0 min 3,2 C 3,8 C
20.11.2011 09:15 3,9 C 96 % 1018 hPa 0,0 l/m 0,0 km/h (0 Bft) S-SW 195 0 min 7,80 klux 0 min 3,3 C 3,9 C
20.11.2011 09:30 4,0 C 96 % 1018 hPa 0,0 l/m 0,0 km/h (0 Bft) S-SW 195 0 min 11,0 klux 0 min 3,4 C 4,0 C
20.11.2011 09:45 4,4 C 97 % 1019 hPa 0,0 l/m 0,0 km/h (0 Bft) S-SW 195 0 min 12,3 klux 0 min 4,0 C 4,4 C
20.11.2011 10:00 4,8 C 97 % 1019 hPa 0,0 l/m 0,0 km/h (0 Bft) S-SW 195 0 min 12,9 klux 0 min 4,4 C 4,8 C
20.11.2011 10:15 5,6 C 97 % 1019 hPa 0,0 l/m 0,0 km/h (0 Bft) S-SW 195 0 min 13,3 klux 0 min 5,2 C 5,6 C
20.11.2011 10:30 6,0 C 96 % 1019 hPa 0,0 l/m 0,0 km/h (0 Bft) S-SW 195 0 min 10,0 klux 0 min 5,4 C 6,0 C
20.11.2011 10:45 6,1 C 95 % 1019 hPa 0,0 l/m 0,0 km/h (0 Bft) S-SW 195 0 min 7,33 klux 0 min 5,4 C 6,1 C
20.11.2011 11:00 5,9 C 95 % 1019 hPa 0,0 l/m 0,0 km/h (0 Bft) S-SW 195 0 min 7,86 klux 0 min 5,2 C 5,9 C
20.11.2011 11:01 5,9 C 95 % 1019 hPa 0,0 l/m 0,0 km/h (0 Bft) S-SW 195 0 min 7,86 klux 0 min 5,2 C 5,9 C
20.11.2011 11:15 5,7 C 94 % 1019 hPa 0,0 l/m 0,0 km/h (0 Bft) S-SW 195 0 min 9,0 klux 0 min 4,8 C 5,7 C
20.11.2011 11:30 5,9 C 95 % 1019 hPa 0,0 l/m 0,0 km/h (0 Bft) S-SW 195 0 min 19,0 klux 0 min 5,2 C 5,9 C
20.11.2011 11:45 6,5 C 95 % 1019 hPa 0,0 l/m 0,0 km/h (0 Bft) S-SW 195 15 min 41,8 klux 0 min 5,8 C 6,5 C
20.11.2011 12:00 7,6 C 95 % 1018 hPa 0,0 l/m 0,0 km/h (0 Bft) S-SW 195 15 min 50,8 klux 0 min 6,9 C 7,6 C
20.11.2011 12:16 9,2 C 93 % 1018 hPa 0,0 l/m 0,0 km/h (0 Bft) S-SW 195 16 min 53,5 klux 0 min 8,1 C 9,2 C
20.11.2011 12:31 10,5 C 89 % 1018 hPa 0,0 l/m 9,9 km/h (2 Bft) SW45 235 15 min 53,8 klux 0 min 8,8 C 8,2 C
20.11.2011 12:45 11,4 C 85 % 1018 hPa 0,0 l/m 15,0 km/h (3 Bft) W22.5 260 14 min 51,5 klux 0 min 9,0 C 6,8 C
20.11.2011 13:00 11,9 C 80 % 1018 hPa 0,0 l/m 20,0 km/h (4 Bft) W-SW67.5 240 15 min 56,0 klux 0 min 8,6 C 5,7 C
20.11.2011 13:15 12,0 C 79 % 1018 hPa 0,0 l/m 20,0 km/h (4 Bft) W-SW22.5 255 15 min 58,2 klux 0 min 8,5 C 5,9 C
20.11.2011 13:30 11,8 C 78 % 1018 hPa 0,0 l/m 19,4 km/h (3 Bft) W22.5 260 0 min 31,8 klux 0 min 8,1 C 5,8 C
20.11.2011 13:31 11,8 C 78 % 1018 hPa 0,0 l/m 19,4 km/h (3 Bft) W22.5 260 0 min 31,8 klux 0 min 8,1 C 5,8 C
20.11.2011 13:45 11,8 C 77 % 1018 hPa 0,0 l/m 17,3 km/h (3 Bft) W-SW45 240 14 min 52,2 klux 0 min 7,9 C 6,5 C
20.11.2011 14:00 11,9 C 77 % 1018 hPa 0,0 l/m 20,0 km/h (4 Bft) W22.5 260 15 min 45,4 klux 0 min 8,0 C 5,7 C
20.11.2011 14:15 11,7 C 76 % 1017 hPa 0,0 l/m 17,1 km/h (3 Bft) W-SW 255 15 min 39,5 klux 0 min 7,6 C 6,4 C
20.11.2011 14:30 11,5 C 76 % 1017 hPa 0,0 l/m 17,6 km/h (3 Bft) W-SW 255 0 min 35,6 klux 0 min 7,4 C 6,0 C
20.11.2011 14:45 11,3 C 76 % 1017 hPa 0,0 l/m 13,6 km/h (3 Bft) SW22.5 215 0 min 33,0 klux 0 min 7,2 C 7,3 C
20.11.2011 15:00 11,0 C 77 % 1017 hPa 0,0 l/m 13,2 km/h (3 Bft) W-SW22.5 250 0 min 28,5 klux 0 min 7,1 C 7,1 C
20.11.2011 15:15 10,7 C 77 % 1017 hPa 0,0 l/m 14,2 km/h (3 Bft) W-SW 245 0 min 24,3 klux 0 min 6,8 C 6,3 C
20.11.2011 15:30 10,3 C 78 % 1017 hPa 0,0 l/m 8,8 km/h (2 Bft) W-SW 250 0 min 21,8 klux 0 min 6,6 C 8,6 C
20.11.2011 15:45 9,9 C 79 % 1017 hPa 0,0 l/m 7,0 km/h (2 Bft) S-SW22.5 210 0 min 18,2 klux 0 min 6,4 C 9,5 C
20.11.2011 16:00 9,3 C 79 % 1017 hPa 0,0 l/m 6,5 km/h (2 Bft) S 190 0 min 13,8 klux 0 min 5,8 C 9,3 C
20.11.2011 16:16 8,8 C 80 % 1017 hPa 0,0 l/m 4,8 km/h (1 Bft) S 185 0 min 8,85 klux 0 min 5,5 C 8,8 C
20.11.2011 16:30 8,2 C 81 % 1017 hPa 0,0 l/m 0,0 km/h (0 Bft) S 185 0 min 5,94 klux 0 min 5,1 C 8,2 C
20.11.2011 16:45 7,3 C 82 % 1017 hPa 0,0 l/m 0,0 km/h (0 Bft) S 185 0 min 1,55 klux 0 min 4,4 C 7,3 C
20.11.2011 17:00 6,5 C 83 % 1017 hPa 0,0 l/m 0,0 km/h (0 Bft) S 185 0 min 450 lux 0 min 3,8 C 6,5 C
20.11.2011 17:15 5,9 C 84 % 1017 hPa 0,0 l/m 0,0 km/h (0 Bft) S 185 0 min 82 lux 0 min 3,4 C 5,9 C
20.11.2011 17:30 5,3 C 85 % 1017 hPa 0,0 l/m 0,0 km/h (0 Bft) S 185 0 min 9 lux 0 min 3,0 C 5,3 C
20.11.2011 17:46 4,8 C 86 % 1017 hPa 0,0 l/m 0,0 km/h (0 Bft) S 185 0 min 0 lux 0 min 2,7 C 4,8 C
20.11.2011 18:00 4,2 C 87 % 1017 hPa 0,0 l/m 0,0 km/h (0 Bft) S 185 0 min 0 lux 0 min 2,2 C 4,2 C
20.11.2011 18:15 3,7 C 87 % 1017 hPa 0,0 l/m 0,0 km/h (0 Bft) S 185 0 min 0 lux 0 min 1,7 C 3,7 C
20.11.2011 18:30 3,3 C 89 % 1017 hPa 0,0 l/m 0,0 km/h (0 Bft) S 185 0 min 0 lux 0 min 1,7 C 3,3 C
20.11.2011 18:45 3,0 C 90 % 1017 hPa 0,0 l/m 0,0 km/h (0 Bft) S 185 0 min 0 lux 0 min 1,5 C 3,0 C
20.11.2011 19:00 2,5 C 90 % 1017 hPa 0,0 l/m 0,0 km/h (0 Bft) S 185 0 min 0 lux 0 min 1,0 C 2,5 C
20.11.2011 19:16 2,1 C 90 % 1017 hPa 0,0 l/m 0,0 km/h (0 Bft) S 185 0 min 0 lux 0 min 0,6 C 2,1 C
20.11.2011 19:30 1,7 C 91 % 1017 hPa 0,0 l/m 0,0 km/h (0 Bft) S 185 0 min 0 lux 0 min 0,4 C 1,7 C
20.11.2011 19:45 1,2 C 91 % 1017 hPa 0,0 l/m 0,0 km/h (0 Bft) S 185 0 min 0 lux 0 min -0,1 C 1,2 C
20.11.2011 20:00 1,2 C 92 % 1017 hPa 0,0 l/m 0,0 km/h (0 Bft) S 185 0 min 0 lux 0 min 0,0 C 1,2 C
20.11.2011 20:15 0,9 C 92 % 1017 hPa 0,0 l/m 0,0 km/h (0 Bft) S 185 0 min 0 lux 0 min -0,2 C 0,9 C
20.11.2011 20:30 0,7 C 92 % 1017 hPa 0,0 l/m 0,0 km/h (0 Bft) S 185 0 min 0 lux 0 min -0,4 C 0,7 C
20.11.2011 20:46 0,6 C 93 % 1017 hPa 0,0 l/m 0,0 km/h (0 Bft) S 185 0 min 0 lux 0 min -0,4 C 0,6 C
20.11.2011 21:00 0,4 C 93 % 1017 hPa 0,0 l/m 0,0 km/h (0 Bft) S 185 0 min 0 lux 0 min -0,6 C 0,4 C
20.11.2011 21:15 0,0 C 93 % 1017 hPa 0,0 l/m 0,0 km/h (0 Bft) S 185 0 min 0 lux 0 min -1,0 C 0,0 C
20.11.2011 21:30 -0,3 C 94 % 1017 hPa 0,0 l/m 0,0 km/h (0 Bft) S 185 0 min 0 lux 0 min -1,1 C -0,3 C
20.11.2011 21:45 -0,5 C 94 % 1017 hPa 0,0 l/m 0,0 km/h (0 Bft) S 185 0 min 0 lux 0 min -1,3 C -0,5 C
20.11.2011 22:00 -0,6 C 94 % 1017 hPa 0,0 l/m 0,0 km/h (0 Bft) S 185 0 min 0 lux 0 min -1,4 C -0,6 C
20.11.2011 22:16 -0,7 C 94 % 1017 hPa 0,0 l/m 0,0 km/h (0 Bft) S 185 0 min 0 lux 0 min -1,5 C -0,7 C
20.11.2011 22:30 -0,9 C 94 % 1017 hPa 0,0 l/m 0,0 km/h (0 Bft) S 185 0 min 0 lux 0 min -1,7 C -0,9 C
20.11.2011 22:45 -1,0 C 94 % 1017 hPa 0,0 l/m 0,0 km/h (0 Bft) S 185 0 min 0 lux 0 min -1,8 C -1,0 C
20.11.2011 23:00 -1,0 C 95 % 1017 hPa 0,0 l/m 0,0 km/h (0 Bft) S 185 0 min 0 lux 0 min -1,7 C -1,0 C
20.11.2011 23:16 -1,1 C 95 % 1017 hPa 0,0 l/m 0,0 km/h (0 Bft) S 185 0 min 0 lux 0 min -1,8 C -1,1 C
20.11.2011 23:30 -1,2 C 95 % 1017 hPa 0,0 l/m 0,0 km/h (0 Bft) S 185 0 min 0 lux 0 min -1,9 C -1,2 C
20.11.2011 23:45 -1,3 C 95 % 1017 hPa 0,0 l/m 0,0 km/h (0 Bft) S 185 0 min 0 lux 0 min -2,0 C -1,3 C
20.11.2011 23:54 -1,4 C 95 % 1017 hPa 0,0 l/m 0,0 km/h (0 Bft) S 185 0 min 0 lux 0 min -2,1 C -1,4 C
_ Min-Zeit 23:54 14:15 14:15 - 00:00 - - - - - 23:54 23:54
Minimum _ -1,4 C 76 % 1017 hPa - 0,0 km/h (0 Bft) - - - - - -2,1 C -1,4 C
_ Max-Zeit 13:15 01:30 09:45 00:00 13:00 - - 12:16 13:15 00:00 12:45 15:45
Maximum _ 12,0 C 97 % 1019 hPa 0,0 l/m 20,0 km/h
W-SW (4 Bft)
- - 16 min 58,2 klux 0 min 9,0 C 9,5 C
Durchschnitt _ 4,2 C 92 % 1018 hPa #0,0 l/m 2,3 km/h (1 Bft) W-SW - #2:29 h 8,84 klux #0 min. 2,9 C 3,6 C